[[{"header":{"parameterUnit":"m.s-1","parameterCategory":1,"la1":30.2991,"la2":30.254,"lo1":-89.0895,"lo2":-89.0444,"dy":0.0017,"dx":0.0017,"nx":28,"ny":28,"refTime":"2025-09-01T21:00:00:Z","depth":0,"parameterNumber":2,"parameterNumberName":"U-component_of_WINDS"},"data":[0,0,0,0,0,0,0,0,0,0,0,0,0,0,0,0,0,0,0,0,0,0,0,0,0,0,0,0,0,0,0,0,0,0,0,0,0,0,0,0,0,0,0,0,0,0,0,0,0,0,0,0,0,0,0,0,0,0,-2.4115,-2.4116,0,-2.4222,-2.4223,-2.4225,-2.4174,-2.4172,-2.4169,-2.4166,-2.4279,-2.4285,-2.429,0,0,0,0,0,0,0,0,0,0,0,0,0,-2.3869,-2.3873,-2.4115,-2.4116,-2.4118,-2.4222,-2.4224,-2.4225,-2.4175,-2.4171,-2.4168,-2.4165,-2.4277,-2.4284,-2.4291,0,0,0,0,0,0,0,0,0,0,0,0,0,-2.3976,-2.3875,-2.4115,-2.4105,-2.4105,-2.4222,-2.4224,-2.4225,-2.4175,-2.4171,-2.4167,-2.4163,-2.4275,-2.4283,-2.4291,-2.4425,0,0,-2.4317,-2.4321,0,0,0,0,0,0,0,0,-2.397,-2.3985,-2.4105,-2.4106,-2.4106,-2.4181,-2.4178,-2.4292,-2.4176,-2.4149,-2.4166,-2.4161,-2.425,-2.426,-2.4289,-2.443,-2.4435,-2.4318,-2.4323,-2.4326,-2.4329,0,0,0,0,0,0,0,-2.3963,-2.398,-2.4157,-2.4107,-2.4108,-2.4096,-2.4107,-2.42,-2.4221,-2.4151,-2.4148,-2.4161,-2.4249,-2.4281,-2.4292,-2.4437,-2.4317,-2.4325,-2.433,-2.4333,-2.4691,-2.4695,0,0,0,0,0,0,-2.3955,-2.3974,-2.4154,-2.4161,-2.4027,-2.4104,-2.4116,-2.4161,-2.422,-2.4225,-2.4164,-2.4158,-2.4269,-2.4282,-2.4295,-2.4454,-2.4326,-2.4334,-2.4339,-2.4687,-2.4692,-2.4697,0,0,0,0,0,0,-2.395,-2.3972,-2.415,-2.4067,-2.4088,-2.4112,-2.4164,-2.4165,-2.4197,-2.423,-2.4234,-2.4193,-2.4266,-2.4284,-2.4392,-2.4458,-2.4338,-2.4345,-2.4681,-2.4688,-2.4695,-2.4774,0,0,0,0,0,0,-2.3943,-2.397,-2.402,-2.4068,-2.4093,-2.4245,-2.4168,-2.417,-2.4211,-2.4204,-2.4258,-2.4263,-2.4265,-2.438,-2.4401,-2.4467,-2.4352,-2.4676,-2.4684,-2.4692,-2.4766,-2.4783,-2.4797,0,0,0,0,0,-2.3934,-2.4039,-2.4023,-2.4045,-2.4156,-2.4248,-2.4263,-2.4262,-2.4217,-2.4268,-2.4289,-2.4261,-2.4447,-2.4392,-2.4415,-2.4484,-2.4672,-2.4682,-2.4692,-2.4759,-2.4779,-2.4797,0,0,0,0,0,0,-2.4,-2.4045,-2.4028,-2.4151,-2.4196,-2.424,-2.4304,-2.4284,-2.4344,-2.4335,-2.4332,-2.4345,-2.4457,-2.4482,-2.4419,-2.4616,-2.4553,-2.4568,-2.4595,-2.4615,-2.4631,-2.4622,-2.4359,0,0,0,0,0,-2.4029,-2.4099,-2.4135,-2.424,-2.4264,-2.428,-2.432,-2.4316,-2.4363,-2.4382,-2.4411,-2.4458,-2.4527,-2.4573,-2.4638,-2.4769,-2.478,-2.4828,-2.4844,-2.4857,-2.487,-2.494,-2.4961,-2.473,-2.473,-2.473,0,0,-2.4089,-2.4122,-2.4167,-2.4254,-2.4289,-2.4362,-2.4297,-2.4377,-2.4431,-2.4394,-2.4498,-2.4521,-2.4574,-2.4694,-2.4749,-2.4718,-2.4936,-2.487,-2.4879,-2.4886,-2.4952,-2.4974,-2.4994,-2.4737,-2.4736,-2.4735,0,0,-2.4235,-2.4268,-2.4359,-2.4394,-2.4446,-2.4456,-2.4478,-2.4525,-2.4538,-2.4642,-2.4616,-2.4681,-2.48,-2.4839,-2.4874,-2.5034,-2.5011,-2.5056,-2.5138,-2.5207,-2.5225,-2.5241,-2.5298,-2.5318,-2.5069,-2.5069,-2.5069,0,-2.4304,-2.4412,-2.4408,-2.4491,-2.453,-2.4498,-2.459,-2.4625,-2.4697,-2.4725,-2.4689,-2.4837,-2.4871,-2.4999,-2.5038,-2.5068,-2.5093,-2.505,-2.5222,-2.5238,-2.5254,-2.5307,-2.5329,-2.5074,-2.5074,-2.5073,-2.5073,0,-2.4493,-2.4569,-2.4636,-2.4704,-2.4751,-2.4838,-2.4848,-2.4896,-2.4887,-2.4901,-2.5008,-2.5046,-2.5119,-2.5149,-2.5142,-2.5277,-2.5256,-2.5222,-2.5158,-2.5281,-2.5331,-2.5352,-2.5082,-2.508,-2.5078,-2.5077,0,0,-2.4685,-2.4749,-2.4773,-2.4803,-2.4858,-2.4917,-2.5003,-2.5072,-2.5113,-2.5164,-2.5235,-2.5337,-2.5305,-2.5345,-2.5342,-2.5402,-2.5526,-2.5361,-2.5362,-2.5389,-2.5676,-2.5701,-2.5725,-2.5511,-2.5515,-2.5518,-2.5671,0,-2.4834,-2.4983,-2.4981,-2.5119,-2.5188,-2.5159,-2.5233,-2.5276,-2.5291,-2.5353,-2.5371,-2.5442,-2.5395,-2.5419,-2.5477,-2.5499,-2.5583,-2.5488,-2.5578,-2.5581,-2.5565,-2.5751,-2.5778,-2.5921,-2.5691,-2.5694,-2.5697,0,-2.5029,-2.5084,-2.5228,-2.5272,-2.5301,-2.5368,-2.5431,-2.5491,-2.5538,-2.5545,-2.5589,-2.5577,-2.5664,-2.5598,-2.5719,-2.5654,-2.5691,-2.5707,-2.5712,-2.572,-2.5646,-2.5764,-2.5966,-2.5987,-2.5728,-2.5726,-2.5723,0,-2.5153,-2.5264,-2.5363,-2.539,-2.5444,-2.5492,-2.5517,-2.556,-2.5601,-2.5657,-2.5684,-2.575,-2.5786,-2.5838,-2.5843,-2.5795,-2.5965,-2.5899,-2.5973,-2.5973,-2.601,-2.6007,-2.622,-2.6035,-2.6035,-2.6034,-2.6034,0,-2.532,-2.5409,-2.542,-2.5481,-2.558,-2.5578,-2.5676,-2.5697,-2.5736,-2.5801,-2.5781,-2.5843,-2.5847,-2.5911,-2.5917,-2.6016,-2.6032,-2.6041,-2.6041,-2.6042,-2.6041,-2.6066,-2.6056,-2.604,-2.6039,-2.6038,-2.6037,0,-2.5475,-2.5486,-2.5593,-2.5634,-2.5647,-2.5718,-2.5754,-2.5813,-2.5826,-2.5909,-2.5929,-2.595,-2.6025,-2.6035,-2.6123,-2.6127,-2.6245,-2.6235,-2.6229,-2.6227,-2.63,-2.6293,-2.6536,-2.6568,-2.6362,-2.6364,-2.6366,0,-2.5581,-2.5648,-2.5697,-2.5738,-2.5765,-2.5833,-2.5875,-2.5876,-2.592,-2.5979,-2.6031,-2.6103,-2.616,-2.6281,-2.6305,-2.6371,-2.6363,-2.6444,-2.6373,-2.6372,-2.6363,-2.6359,-2.6366,-2.6457,-2.6459,-2.6461,-2.6463,0,-2.5767,-2.5768,-2.5829,-2.5891,-2.5941,-2.5991,-2.6038,-2.6074,-2.608,-2.6132,-2.6206,-2.6251,-2.634,-2.6411,-2.6477,-2.6504,-2.6485,-2.6485,-2.6505,-2.6507,-2.65,-2.6504,-2.6265,-2.6479,-2.6477,-2.6476,-2.6475,-2.6475,-2.59,-2.5958,-2.6001,-2.6069,-2.6104,-2.6148,-2.6205,-2.6224,-2.6287,-2.6358,-2.6355,-2.6437,-2.6483,-2.6569,-2.66,-2.6665,-2.6639,-2.6669,-2.6676,-2.6684,-2.669,-2.649,-2.6677,-2.6677,-2.6676,-2.6676,-2.6676,0,-2.6084,-2.611,-2.6173,-2.6238,-2.6291,-2.6267,-2.6318,-2.6364,-2.6436,-2.648,-2.6536,-2.6622,-2.6692,-2.6721,-2.6789,-2.6835,-2.6828,-2.6853,-2.685,-2.6856,-2.671,-2.6685,-2.6858,-2.6858,-2.6858,-2.6858,-2.6858,-2.6857,-2.6187,-2.6284,-2.629,-2.6404,-2.643,-2.6509,-2.654,-2.658,-2.6615,-2.6711,-2.6768,-2.6786,-2.6824,-2.6894,-2.6957,-2.6964,-2.699,-2.7019,-2.7022,-2.6885,-2.6866,-2.6849,-2.6825,-2.7024,-2.7025,-2.7162,-2.7163,-2.7164]},{"header":{"parameterUnit":"m.s-1","parameterCategory":1,"la1":30.2991,"la2":30.254,"lo1":-89.0895,"lo2":-89.0444,"dy":0.0017,"dx":0.0017,"nx":28,"ny":28,"refTime":"2025-09-01T21:00:00:Z","depth":0,"parameterNumber":3,"parameterNumberName":"V-component_of_WINDS"},"data":[0,0,0,0,0,0,0,0,0,0,0,0,0,0,0,0,0,0,0,0,0,0,0,0,0,0,0,0,0,0,0,0,0,0,0,0,0,0,0,0,0,0,0,0,0,0,0,0,0,0,0,0,0,0,0,0,0,0,0.5729,0.5729,0,0.5658,0.5657,0.5657,0.559,0.5589,0.5588,0.5588,0.5513,0.5512,0.5511,0,0,0,0,0,0,0,0,0,0,0,0,0,0.5806,0.5805,0.5729,0.5729,0.5728,0.5658,0.5657,0.5656,0.559,0.5589,0.5588,0.5587,0.5513,0.5512,0.5511,0,0,0,0,0,0,0,0,0,0,0,0,0,0.5758,0.5805,0.573,0.5686,0.5682,0.5659,0.5657,0.5656,0.559,0.5589,0.5588,0.5587,0.5514,0.5512,0.551,0.5524,0,0,0.5505,0.5504,0,0,0,0,0,0,0,0,0.5761,0.5755,0.5694,0.5689,0.5684,0.5632,0.5657,0.5612,0.5591,0.5625,0.5588,0.5586,0.5553,0.5548,0.5538,0.552,0.5517,0.5505,0.5503,0.5503,0.5502,0,0,0,0,0,0,0,0.5764,0.5758,0.5701,0.5693,0.5687,0.567,0.5662,0.5648,0.5597,0.5622,0.5617,0.561,0.5551,0.554,0.5535,0.5516,0.5505,0.5503,0.5502,0.5501,0.5505,0.5507,0,0,0,0,0,0,0.5774,0.5761,0.5703,0.5699,0.572,0.567,0.566,0.565,0.5597,0.5588,0.5611,0.5607,0.5543,0.5538,0.5532,0.5544,0.5503,0.5501,0.55,0.5504,0.5506,0.5507,0,0,0,0,0,0,0.5776,0.577,0.5706,0.5729,0.5719,0.567,0.5658,0.5649,0.5638,0.5588,0.5579,0.5609,0.5542,0.5535,0.5526,0.5541,0.55,0.5498,0.5503,0.5505,0.5506,0.5568,0,0,0,0,0,0,0.5779,0.5771,0.5776,0.5729,0.5718,0.5702,0.5659,0.5649,0.5635,0.5629,0.5584,0.5575,0.5541,0.5529,0.5525,0.5537,0.5497,0.5501,0.5504,0.5506,0.5565,0.5572,0.5578,0,0,0,0,0,0.5782,0.5796,0.5776,0.577,0.5724,0.5703,0.5697,0.5657,0.5637,0.5641,0.5609,0.5577,0.554,0.5529,0.5523,0.5536,0.55,0.5503,0.5506,0.5562,0.5571,0.5578,0,0,0,0,0,0,0.5845,0.5789,0.5767,0.5766,0.574,0.5692,0.5696,0.5667,0.5646,0.5641,0.5592,0.5582,0.5579,0.5556,0.5545,0.5546,0.5516,0.5517,0.5561,0.5569,0.5575,0.5581,0.5495,0,0,0,0,0,0.5859,0.5847,0.5799,0.5803,0.5791,0.5746,0.5736,0.5707,0.5678,0.5666,0.5634,0.5606,0.5588,0.5577,0.5558,0.5561,0.555,0.5567,0.5574,0.558,0.5582,0.5582,0.5588,0.5516,0.5516,0.5516,0,0,0.5887,0.5855,0.5851,0.5815,0.5791,0.578,0.5737,0.5727,0.5718,0.5664,0.5654,0.563,0.5595,0.5593,0.559,0.5574,0.5599,0.5583,0.5588,0.5587,0.5585,0.5592,0.5598,0.5518,0.5517,0.5517,0,0,0.5933,0.5908,0.5909,0.5886,0.5851,0.5821,0.5822,0.5778,0.5759,0.5749,0.5708,0.5696,0.5667,0.5644,0.5628,0.5666,0.5636,0.5662,0.5697,0.5697,0.5703,0.5708,0.5721,0.5726,0.5664,0.5664,0.5664,0,0.5973,0.5955,0.5913,0.5905,0.5891,0.5842,0.5842,0.5822,0.5782,0.5773,0.5755,0.5717,0.5691,0.5682,0.5692,0.5681,0.5679,0.5666,0.5706,0.571,0.5714,0.5726,0.5731,0.5667,0.5667,0.5666,0.5666,0,0.6005,0.5994,0.5998,0.5962,0.5948,0.5944,0.5901,0.5891,0.5864,0.5836,0.5826,0.5792,0.5766,0.5761,0.5735,0.5749,0.574,0.5715,0.5684,0.5725,0.5735,0.574,0.5672,0.5671,0.567,0.5669,0,0,0.6089,0.6029,0.6032,0.6015,0.5973,0.5962,0.5956,0.5931,0.5923,0.5898,0.5891,0.5867,0.5844,0.5826,0.5797,0.5797,0.5829,0.5772,0.577,0.5783,0.5843,0.5862,0.5868,0.5809,0.581,0.581,0.5846,0,0.6128,0.6115,0.6077,0.6075,0.6064,0.6018,0.6012,0.5986,0.5959,0.5945,0.5915,0.5899,0.587,0.5859,0.5857,0.5826,0.5841,0.5823,0.5802,0.5802,0.5812,0.5874,0.5894,0.5929,0.585,0.585,0.5851,0,0.6171,0.6149,0.6147,0.6105,0.6099,0.6095,0.6068,0.6055,0.6024,0.6005,0.5986,0.5953,0.5943,0.5915,0.5901,0.589,0.5879,0.5863,0.5863,0.5859,0.5829,0.5871,0.5939,0.5944,0.5857,0.5856,0.5856,0,0.6232,0.6202,0.6196,0.6183,0.6134,0.6133,0.6112,0.608,0.6067,0.6043,0.6034,0.601,0.5997,0.5979,0.594,0.5923,0.5931,0.5899,0.5914,0.5915,0.5917,0.5917,0.5984,0.5911,0.5911,0.5911,0.5911,0,0.6279,0.628,0.6223,0.622,0.6218,0.6175,0.6174,0.615,0.6121,0.6112,0.607,0.6062,0.6012,0.5998,0.5967,0.5961,0.5955,0.5939,0.593,0.5942,0.5944,0.5934,0.5931,0.5912,0.5912,0.5912,0.5911,0,0.6347,0.6309,0.63,0.6255,0.6244,0.6245,0.6206,0.6201,0.6172,0.6161,0.6155,0.611,0.6091,0.6051,0.6021,0.6001,0.6001,0.5987,0.6012,0.6007,0.6024,0.6023,0.6086,0.6092,0.6016,0.6017,0.6018,0,0.638,0.6379,0.6334,0.6325,0.6306,0.6292,0.6279,0.6236,0.6224,0.6188,0.6187,0.6165,0.6146,0.6118,0.6082,0.6059,0.6044,0.6067,0.604,0.6052,0.6043,0.6044,0.6043,0.6073,0.6074,0.6075,0.6076,0,0.6442,0.6423,0.6406,0.6382,0.6367,0.6346,0.6323,0.6318,0.6269,0.6257,0.6238,0.6223,0.6193,0.6172,0.6144,0.6122,0.6091,0.6085,0.6087,0.6099,0.6113,0.6105,0.6029,0.6083,0.6083,0.6082,0.6082,0.6081,0.6492,0.6489,0.6457,0.6439,0.6418,0.6397,0.639,0.636,0.6344,0.6316,0.6292,0.6275,0.6243,0.6202,0.6182,0.6168,0.6153,0.6156,0.6156,0.6158,0.6163,0.6116,0.6163,0.6162,0.6162,0.6162,0.6162,0,0.6552,0.6529,0.6513,0.6482,0.6468,0.6441,0.6413,0.6403,0.6389,0.6362,0.6344,0.6322,0.6301,0.6264,0.624,0.6236,0.6221,0.6231,0.623,0.6226,0.6178,0.6179,0.6243,0.6243,0.6243,0.6243,0.6243,0.6243,0.6581,0.6575,0.6552,0.6535,0.6511,0.6495,0.6482,0.6462,0.6441,0.6418,0.6401,0.6377,0.6346,0.6319,0.6299,0.6288,0.6281,0.6296,0.6281,0.6237,0.6229,0.6222,0.6222,0.6295,0.6295,0.633,0.633,0.633]}]]